797  
SXUS55 KTWC 271715  
OSOTWC  
 
WEATHER ROUNDUP FOR SOUTHEAST ARIZONA  
NATIONAL WEATHER SERVICE TUCSON AZ  
1015 AM MST SAT MAY 27 2017  
 
AZZ504>506-514-271815-  
LOCATION SKY/WX TMP DP RH WIND PRES REMARKS  
TUCSON SUNNY 83 23 11 CALM 30.03F  
DAVIS-MONTHAN SUNNY 82 18 9 CALM 30.02F  
CHILDRENS PARK N/A N/A N/A 19 S3 PIMA CO DEQ  
ALVERNON/22ND N/A 79 N/A N/A E3 PIMA CO DEQ  
CHERRY/GLENN N/A N/A N/A N/A N/A PIMA CO DEQ  
TANGERINE N/A 79 N/A N/A S8 PIMA CO DEQ  
CONTL RANCH N/A 80 30 16 SE6 PIMA CO DEQ  
GRANT/1ST N/A 77 30 18 S4 PIMA CO DEQ  
CRAYCROFT/22ND N/A 80 27 14 N/A PIMA CO DEQ  
GOLFLINKS/KOLB N/A N/A N/A N/A N/A PIMA CO DEQ  
AJO/12TH N/A 78 32 19 SE3 PIMA CO DEQ  
FAIRGROUNDS N/A 80 N/A N/A NE4 PIMA CO DEQ  
SAGUARO N/A 84 28 13 SW3 *SABINO CYN  
SAN CARLOS N/A 80 21 11 SE4 *SAN CARLOS  
GREEN VALLEY N/A 76 29 18 SE4 PIMA CO DEQ  
HORSE CAMP CYN N/A 77 22 13 S2 *ARAVAIPA CYN  
RINCON MTNS N/A 64 0 7 SW2 *NR MANNING CAMP  

 
 
AZZ509>511-271815-  
LOCATION SKY/WX TMP DP RH WIND PRES REMARKS  
SAFFORD SUNNY 81 22 11 SE5 30.04S  
STRAY HORSE N/A 60 14 16 N/A *  
TRAIL CABIN N/A 69 14 12 SW6G10 *N OF GRANVILLE  
BLACK HILLS NOT AVBL  
DRY LAKE N/A 65 11 12 S5 *NATANES MTNS  
NOON CREEK N/A 76 27 16 NE5G12 *PINALENO MTNS  
COLUMBINE N/A 54 6 14 SW4 *PINALENO MTNS  
GUTHRIE N/A 69 24 18 S2G15 *SW OF GUTHRIE  

 
 
AZZ502-503-513-271815-  
LOCATION SKY/WX TMP DP RH WIND PRES REMARKS  
NOGALES SUNNY 82 20 10 VRB7 30.08S  
SELLS N/A 84 31 15 W4 *  
SASABE N/A 81 29 15 SW3 *ALTAR VLY  
HOPKINS N/A 69 18 14 N3G10 *SANTA RITA MTNS  
CARR CYN N/A 78 28 16 NE3 *W OF HEREFORD  

 
 
AZZ507-508-512-271815-  
LOCATION SKY/WX TMP DP RH WIND PRES REMARKS  
SIERRA VISTA SUNNY 77 19 11 NE5 30.13S  
DOUGLAS SUNNY 79 31 17 S9 30.09F  
EMPIRE MTNS NOT AVBL  
MULESHOE RANCH N/A 76 20 12 W3 *PRESERVE  
HEADQUARTERS NOT AVBL  

 
   
............................NOTES..........................
 
 
THIS IS AN AUTOMATED COLLECTIVE WITH MINIMAL QUALITY CONTROL.  
PIMA CO DEQ SITES HAVE NONSTANDARD WIND SENSOR HEIGHTS.  
PIMA CO DEQ SITES DO NOT REPORT WIND GUSTS.  
* INDICATES WIND SENSORS LOCATED AT 20 FEET INSTEAD OF 33 FEET.   
.............................KEY...........................
 
 
SKY/WX - SKY CONDITION/WEATHER  
TMP - TEMPERATURE IN FAHRENHEIT  
DP - DEWPOINT IN FAHRENHEIT  
RH - RELATIVE HUMIDITY IN PERCENT  
WIND - DIRECTION AND SPEED IN MILES PER HOUR (MPH)  
VRB - VARIABLE WIND DIRECTION  
PRES - MEAN SEA LEVEL PRESSURE IN INCHES OF MERCURY  
F - FALLING PRESSURE R - RISING PRESSURE  
S - STEADY PRESSURE  
VSB - VISIBILITY IN MILES  
HX - HEAT INDEX IN FAHRENHEIT  
WCI - WIND CHILL INDEX IN FAHRENHEIT  
N/A - NOT AVAILABLE  
AFB - AIR FORCE BASE  
DAVIS-MONTHAN IS DAVIS-MONTHAN AIR FORCE BASE  
CYN - CANYON  
MTNS - MOUNTAINS  
NCA - NATIONAL CONSERVATION AREA  
NR - NEAR  
VLY - VALLEY  
CONTL - CONTINENTAL  
PIMA CO DEQ - PIMA COUNTY DEPT OF ENVIRONMENTAL QUALITY  
 
CLICK HERE TO GO TO PREVIOUS BULLETINS.

The Nexlab AZ Page Main Text Page